Location: Newark
(34.9500°N, 139.9667°E)
Time: 23:00:58
(UTC+00:00)

Vanguard 2 Rocket - Pass Details

Date: 11 December 2019
Orbit: 554 x 3326 km, 32.9° (Epoch: 24 January)

Event Time Altitude Azimuth Distance (km) Brightness Sun altitude
Rises 04:04:47 0° 192° (SSW) 7,290 12.7 28.1°
Reaches altitude 10° 04:12:51 10° 175° (S) 6,228 12.2 27.4°
Maximum altitude 04:23:05 17° 142° (SE) 5,301 11.2 26.5°
Drops below altitude 10° 04:31:53 10° 110° (ESE) 5,307 10.8 25.6°
Sets 04:37:35 0° 92° (E) 5,822 10.7 25.0°
